This is the latest recevied weather packets stored in our database for station/object AB1AU. If no packets are shown the sender has not sent any weather packets the latest 10 day(s).
| Time | Temp. | Humidity | Pressure | Rain* | Wind** | Luminosity | Snow |
|---|---|---|---|---|---|---|---|
| 1777672265 | 15° C | 32% | 1008.8 hPa | 0 mm | - | 52 W/m² | - |
| 1777671961 | 15° C | 34% | 1008.6 hPa | 0 mm | - | 68 W/m² | - |
| 1777671656 | 15° C | 33% | 1008.5 hPa | 0 mm | - | 59 W/m² | - |
| 1777671353 | 15° C | 33% | 1008.5 hPa | 0 mm | - | 87 W/m² | - |
| 1777671050 | 15.56° C | 33% | 1008.4 hPa | 0 mm | - | 48 W/m² | - |
| 1777670746 | 15.56° C | 35% | 1008.6 hPa | 0 mm | - | 63 W/m² | - |
| 1777670443 | 15.56° C | 34% | 1008.3 hPa | 0 mm | - | 56 W/m² | - |
| 1777670139 | 15.56° C | 35% | 1008.4 hPa | 0 mm | - | 56 W/m² | - |
| 1777669838 | 15.56° C | 35% | 1008.4 hPa | 0 mm | - | 165 W/m² | - |
| 1777669533 | 15.56° C | 35% | 1008.5 hPa | 0 mm | - | 103 W/m² | - |
| 1777669231 | 15° C | 35% | 1008.2 hPa | 0 mm | - | 183 W/m² | - |
| 1777668927 | 15.56° C | 33% | 1008.3 hPa | 0 mm | - | 192 W/m² | - |
| 1777668625 | 15.56° C | 36% | 1008.3 hPa | 0 mm | - | 155 W/m² | - |
| 1777668321 | 15.56° C | 36% | 1008.3 hPa | 0 mm | - | 277 W/m² | - |
| 1777668017 | 15.56° C | 36% | 1008.3 hPa | 0 mm | - | 196 W/m² | - |
| 1777667714 | 15.56° C | 34% | 1008.1 hPa | 0 mm | - | 306 W/m² | - |
| 1777667412 | 16.11° C | 34% | 1008.1 hPa | 0 mm | - | 102 W/m² | - |
| 1777667108 | 15.56° C | 36% | 1008 hPa | 0 mm | - | 325 W/m² | - |
| 1777666804 | 15.56° C | 36% | 1007.9 hPa | 0 mm | - | 347 W/m² | - |
| 1777666502 | 15.56° C | 38% | 1007.9 hPa | 0 mm | - | 267 W/m² | - |
| 1777666198 | 15.56° C | 38% | 1007.8 hPa | 0 mm | - | 237 W/m² | - |
| 1777665896 | 15.56° C | 40% | 1007.9 hPa | 0 mm | - | 390 W/m² | - |
| 1777665593 | 15.56° C | 41% | 1007.6 hPa | 0 mm | - | 270 W/m² | - |
| 1777665284 | 15.56° C | 40% | 1007.6 hPa | 0 mm | - | 393 W/m² | - |
| 1777664980 | 15.56° C | 40% | 1007.6 hPa | 0 mm | - | 325 W/m² | - |
* Rain latest hour (hover to see other rain measurements)
** Current wind speed in m/s (hover to see current wind gust speed)